When you browse on this site, cookies collect data to enhance your experience and personalize the content and advertising you see.
Visit our Privacy Policy to learn more. By continuing to use the site, you agree to this use of cookies and data.
  • In Schweiz
  • Länderverzeichnis
  • Für 7 Tage
  • Wassertemperatur
  • Satellitenkarten
  • Wetterkarte
  • Widgets
  • user-avatar
    Anmelden

    Stündliche Wetter Salzburg

    Heute, 21 Mai, Dienstag

    Zeit Temperatur Niederschläge Wind Luftdruck Luftfeuchtigkeit
    00:00 +4°C° 2.7 mm 1 m/S 617 mmHg 97%
    01:00 +3°C° 0 mm 2 m/S 617 mmHg 97%
    02:00 +3°C° 1.5 mm 2 m/S 617 mmHg 97%
    03:00 +3°C° 1.5 mm 2 m/S 617 mmHg 97%
    04:00 +4°C° 1.5 mm 1 m/S 618 mmHg 97%
    05:00 +4°C° 1 mm 1 m/S 618 mmHg 97%
    06:00 +5°C° 1 mm 1 m/S 618 mmHg 97%
    07:00 +5°C° 0 mm 1 m/S 618 mmHg 97%
    08:00 +5°C° 1.5 mm 1 m/S 619 mmHg 97%
    09:00 +5°C° 1.5 mm 1 m/S 619 mmHg 96%
    10:00 +5°C° 1.5 mm 1 m/S 619 mmHg 96%
    11:00 +5°C° 1 mm 1 m/S 620 mmHg 95%
    12:00 +6°C° 1 mm 1 m/S 620 mmHg 95%
    13:00 +5°C° 0 mm 0 m/S 621 mmHg 94%
    14:00 +6°C° 0.8 mm 1 m/S 621 mmHg 94%
    15:00 +6°C° 0.8 mm 1 m/S 621 mmHg 94%
    16:00 +6°C° 0.8 mm 1 m/S 621 mmHg 94%
    17:00 +6°C° 0.9 mm 1 m/S 621 mmHg 95%
    18:00 +5°C° 0.9 mm 1 m/S 621 mmHg 96%
    19:00 +5°C° 0.9 mm 1 m/S 621 mmHg 96%
    20:00 +4°C° 0.7 mm 1 m/S 622 mmHg 96%
    21:00 +4°C° 0.7 mm 1 m/S 622 mmHg 96%
    22:00 +4°C° 0.7 mm 1 m/S 622 mmHg 96%
    23:00 +4°C° 0.6 mm 1 m/S 622 mmHg 96%

    Morgen, 22 Mai, Mittwoch

    Zeit Temperatur Niederschläge Wind Luftdruck Luftfeuchtigkeit
    00:00 +3°C° 0.6 mm 1 m/S 623 mmHg 96%
    01:00 +3°C° 0.6 mm 1 m/S 623 mmHg 95%
    02:00 +3°C° 0.7 mm 1 m/S 623 mmHg 96%
    03:00 +3°C° 0.7 mm 1 m/S 623 mmHg 96%
    04:00 +3°C° 0.7 mm 1 m/S 623 mmHg 96%
    05:00 +3°C° 0.8 mm 1 m/S 623 mmHg 96%
    06:00 +4°C° 0.8 mm 1 m/S 624 mmHg 95%
    07:00 +5°C° 0.8 mm 1 m/S 624 mmHg 94%
    08:00 +5°C° 0.8 mm 1 m/S 624 mmHg 94%
    09:00 +5°C° 0.8 mm 1 m/S 624 mmHg 94%
    10:00 +5°C° 0.8 mm 1 m/S 625 mmHg 93%
    11:00 +6°C° 0.5 mm 1 m/S 625 mmHg 92%
    12:00 +6°C° 0.5 mm 1 m/S 625 mmHg 90%
    13:00 +7°C° 0.5 mm 1 m/S 625 mmHg 88%
    14:00 +7°C° 0.1 mm 1 m/S 625 mmHg 84%
    15:00 +8°C° 0.1 mm 1 m/S 626 mmHg 80%
    16:00 +9°C° 0.1 mm 1 m/S 626 mmHg 76%
    17:00 +8°C° 0.3 mm 1 m/S 626 mmHg 82%
    18:00 +7°C° 0.3 mm 1 m/S 626 mmHg 88%
    19:00 +6°C° 0.3 mm 1 m/S 626 mmHg 94%
    20:00 +6°C° 0.5 mm 1 m/S 626 mmHg 95%
    21:00 +5°C° 0.5 mm 1 m/S 626 mmHg 96%
    22:00 +5°C° 0.5 mm 1 m/S 627 mmHg 97%
    23:00 +5°C° 0.3 mm 1 m/S 627 mmHg 98%

    übermorgen, 23 Mai, Donnerstag

    Zeit Temperatur Niederschläge Wind Luftdruck Luftfeuchtigkeit
    00:00 +4°C° 0.3 mm 1 m/S 627 mmHg 98%
    01:00 +4°C° 0.3 mm 1 m/S 627 mmHg 98%
    02:00 +4°C° 0.1 mm 1 m/S 627 mmHg 98%
    03:00 +3°C° 0.1 mm 0 m/S 627 mmHg 98%
    04:00 +3°C° 0.1 mm 0 m/S 627 mmHg 98%
    05:00 +5°C° 0.1 mm 1 m/S 627 mmHg 97%
    06:00 +5°C° 0.1 mm 1 m/S 627 mmHg 95%
    07:00 +5°C° 0.1 mm 1 m/S 627 mmHg 94%
    08:00 +6°C° 0.1 mm 1 m/S 628 mmHg 88%
    09:00 +7°C° 0.1 mm 1 m/S 628 mmHg 82%
    10:00 +8°C° 0.1 mm 1 m/S 628 mmHg 77%
    11:00 +10°C° 0 mm 1 m/S 628 mmHg 69%
    12:00 +11°C° 0 mm 1 m/S 629 mmHg 61%
    13:00 +12°C° 0 mm 1 m/S 629 mmHg 54%
    14:00 +12°C° 0 mm 2 m/S 629 mmHg 53%
    15:00 +12°C° 0 mm 2 m/S 628 mmHg 53%
    16:00 +12°C° 0 mm 2 m/S 628 mmHg 52%
    17:00 +10°C° 0 mm 2 m/S 628 mmHg 62%
    18:00 +9°C° 0 mm 1 m/S 627 mmHg 72%
    19:00 +8°C° 0 mm 1 m/S 627 mmHg 82%
    20:00 +6°C° 0 mm 1 m/S 626 mmHg 86%
    21:00 +5°C° 0 mm 1 m/S 626 mmHg 90%
    22:00 +3°C° 0 mm 1 m/S 626 mmHg 94%
    23:00 +3°C° 0 mm 1 m/S 626 mmHg 94%

    24 Mai, Freitag

    Zeit Temperatur Niederschläge Wind Luftdruck Luftfeuchtigkeit
    00:00 +2°C° 0 mm 1 m/S 626 mmHg 93%
    01:00 +2°C° 0 mm 1 m/S 625 mmHg 93%
    02:00 +2°C° 0 mm 1 m/S 625 mmHg 91%
    03:00 +2°C° 0 mm 1 m/S 625 mmHg 89%
    04:00 +2°C° 0 mm 1 m/S 625 mmHg 86%
    05:00 +4°C° 0 mm 1 m/S 626 mmHg 77%
    06:00 +5°C° 0 mm 0 m/S 626 mmHg 68%
    07:00 +8°C° 0 mm 0 m/S 627 mmHg 59%
    08:00 +9°C° 0 mm 0 m/S 627 mmHg 54%
    09:00 +12°C° 0 mm 1 m/S 628 mmHg 49%
    10:00 +14°C° 0 mm 1 m/S 628 mmHg 44%
    11:00 +14°C° 0 mm 1 m/S 628 mmHg 43%
    12:00 +15°C° 0 mm 2 m/S 628 mmHg 42%
    13:00 +16°C° 0 mm 2 m/S 628 mmHg 41%
    14:00 +15°C° 0 mm 2 m/S 628 mmHg 44%
    15:00 +15°C° 0 mm 2 m/S 628 mmHg 47%
    16:00 +15°C° 0 mm 2 m/S 627 mmHg 50%
    17:00 +13°C° 0 mm 2 m/S 626 mmHg 61%
    18:00 +11°C° 0 mm 1 m/S 626 mmHg 71%
    19:00 +10°C° 0 mm 1 m/S 625 mmHg 81%
    20:00 +8°C° 0 mm 1 m/S 625 mmHg 86%
    21:00 +7°C° 0 mm 1 m/S 625 mmHg 90%
    22:00 +5°C° 0 mm 1 m/S 625 mmHg 94%
    23:00 +5°C° 0 mm 1 m/S 625 mmHg 94%

    25 Mai, Samstag

    Zeit Temperatur Niederschläge Wind Luftdruck Luftfeuchtigkeit
    00:00 +5°C° 0 mm 1 m/S 624 mmHg 94%
    01:00 +4°C° 0 mm 1 m/S 624 mmHg 95%
    02:00 +4°C° 0 mm 1 m/S 624 mmHg 95%
    03:00 +4°C° 0 mm 1 m/S 624 mmHg 95%
    04:00 +4°C° 0 mm 1 m/S 624 mmHg 94%
    05:00 +6°C° 0 mm 1 m/S 625 mmHg 87%
    06:00 +7°C° 0 mm 0 m/S 626 mmHg 80%
    07:00 +9°C° 0 mm 0 m/S 627 mmHg 73%
    08:00 +11°C° 0 mm 0 m/S 627 mmHg 65%
    09:00 +13°C° 0 mm 1 m/S 628 mmHg 58%
    10:00 +15°C° 0 mm 1 m/S 628 mmHg 50%
    11:00 +15°C° 0.2 mm 1 m/S 628 mmHg 52%
    12:00 +15°C° 0.2 mm 1 m/S 628 mmHg 54%
    13:00 +15°C° 0.2 mm 1 m/S 628 mmHg 56%
    14:00 +14°C° 0.9 mm 1 m/S 627 mmHg 65%
    15:00 +13°C° 0.9 mm 1 m/S 627 mmHg 74%
    16:00 +11°C° 0.9 mm 0 m/S 626 mmHg 83%
    17:00 +10°C° 0.5 mm 0 m/S 626 mmHg 87%
    18:00 +9°C° 0.5 mm 0 m/S 626 mmHg 90%
    19:00 +8°C° 0.5 mm 0 m/S 626 mmHg 94%
    20:00 +8°C° 0.3 mm 1 m/S 626 mmHg 95%
    21:00 +8°C° 0.3 mm 1 m/S 626 mmHg 95%
    22:00 +7°C° 0.3 mm 1 m/S 626 mmHg 96%
    23:00 +7°C° 0.2 mm 1 m/S 626 mmHg 96%

    26 Mai, Sonntag

    Zeit Temperatur Niederschläge Wind Luftdruck Luftfeuchtigkeit
    00:00 +6°C° 0.2 mm 1 m/S 625 mmHg 96%
    01:00 +6°C° 0.2 mm 1 m/S 625 mmHg 96%
    02:00 +6°C° 0.9 mm 1 m/S 625 mmHg 96%
    03:00 +5°C° 0.9 mm 0 m/S 625 mmHg 96%
    04:00 +5°C° 0.9 mm 0 m/S 625 mmHg 97%
    05:00 +6°C° 0.5 mm 0 m/S 626 mmHg 96%
    06:00 +7°C° 0.5 mm 1 m/S 626 mmHg 96%
    07:00 +7°C° 0.5 mm 1 m/S 626 mmHg 95%
    08:00 +9°C° 0.2 mm 1 m/S 627 mmHg 88%
    09:00 +10°C° 0.2 mm 1 m/S 627 mmHg 81%
    10:00 +11°C° 0.2 mm 1 m/S 628 mmHg 73%
    11:00 +12°C° 0.2 mm 1 m/S 628 mmHg 68%
    12:00 +13°C° 0.2 mm 2 m/S 628 mmHg 62%
    13:00 +14°C° 0.2 mm 2 m/S 628 mmHg 56%
    14:00 +14°C° 0.2 mm 2 m/S 628 mmHg 59%
    15:00 +14°C° 0.2 mm 2 m/S 628 mmHg 61%
    16:00 +13°C° 0.2 mm 2 m/S 627 mmHg 63%
    17:00 +12°C° 0.2 mm 1 m/S 627 mmHg 71%
    18:00 +11°C° 0.2 mm 1 m/S 627 mmHg 79%
    19:00 +9°C° 0.2 mm 1 m/S 626 mmHg 87%
    20:00 +9°C° 0.3 mm 1 m/S 626 mmHg 89%
    21:00 +8°C° 0.3 mm 1 m/S 626 mmHg 92%
    22:00 +7°C° 0.3 mm 1 m/S 626 mmHg 94%
    23:00 +6°C° 0.2 mm 1 m/S 626 mmHg 94%
    Mehr zeigen